K5RLW Weather Reports


Display with metric or nautical units.
time (UTC)temp
F
wind
direction
speed
MPH
gust
MPH
rain 1hr
in
rain 24hr
in
rain mn
in
humidity
%
barometer
mb
20260509201016 87 90 1.0 3.0 0.00 0.00 0.00 48 1010.6
20260509200016 87 90 1.0 4.0 0.00 0.00 0.00 47 1010.7
20260509195016 87 45 1.0 4.0 0.00 0.00 0.00 50 1010.9
20260509194016 87 113 1.0 3.0 0.00 0.00 0.00 50 1011.0
20260509193015 87 45 1.0 3.0 0.00 0.00 0.00 51 1011.1
20260509192016 87 45 2.0 4.0 0.00 0.00 0.00 48 1011.2
20260509191015 87 68 1.0 4.0 0.00 0.00 0.00 49 1011.3
20260509190015 86 23 1.0 4.0 0.00 0.00 0.00 49 1011.3
20260509185015 86 0 1.0 3.0 0.00 0.00 0.00 52 1011.5
20260509184016 86 0 1.0 3.0 0.00 0.00 0.00 53 1011.6
20260509183016 86 0 1.0 3.0 0.00 0.00 0.00 52 1011.6
20260509182015 86 0.0 2.0 0.00 0.00 0.00 52 1011.8
20260509181015 86 0 1.0 6.0 0.00 0.00 0.00 54 1011.9
20260509180015 85 0 2.0 4.0 0.00 0.00 0.00 53 1012.0
20260509175015 85 0 1.0 3.0 0.00 0.00 0.00 55 1012.1
20260509174016 84 0 2.0 4.0 0.00 0.00 0.00 53 1012.1
20260509173016 84 0 2.0 5.0 0.00 0.00 0.00 52 1012.1
20260509172015 83 23 2.0 8.0 0.00 0.00 0.00 54 1012.1
20260509171016 83 338 1.0 3.0 0.00 0.00 0.00 55 1012.3
20260509170015 83 338 2.0 5.0 0.00 0.00 0.00 56 1012.3
20260509165015 82 293 2.0 8.0 0.00 0.00 0.00 55 1012.4
20260509164015 82 23 1.0 2.0 0.00 0.00 0.00 56 1012.5
20260509163015 81 23 2.0 7.0 0.00 0.00 0.00 58 1012.6
20260509162015 80 23 1.0 7.0 0.00 0.00 0.00 58 1012.7
20260509161015 80 23 2.0 7.0 0.00 0.00 0.00 59 1012.8
20260509160015 79 23 2.0 8.0 0.00 0.00 0.00 60 1012.6
20260509155015 79 23 2.0 5.0 0.00 0.00 0.00 60 1012.4
20260509154015 78 23 2.0 7.0 0.00 0.00 0.00 61 1012.3
20260509153015 77 23 2.0 7.0 0.00 0.00 0.00 65 1012.4
20260509152015 77 0 1.0 2.0 0.00 0.00 0.00 66 1012.3
20260509151015 76 293 2.0 6.0 0.00 0.00 0.00 69 1012.4
20260509150015 75 0 4.0 8.0 0.00 0.00 0.00 69 1012.4
20260509145015 75 45 4.0 10.0 0.00 0.00 0.00 71 1012.4
20260509144015 74 0 2.0 5.0 0.00 0.00 0.00 76 1012.4
20260509143015 73 315 2.0 8.0 0.00 0.00 0.00 75 1012.5
20260509142015 73 68 1.0 4.0 0.00 0.00 0.00 79 1012.6
20260509141015 72 68 1.0 4.0 0.00 0.00 0.00 80 1012.7
20260509140015 71 0.0 1.0 0.00 0.00 0.00 81 1012.7
20260509135015 71 23 1.0 4.0 0.00 0.00 0.00 81 1012.8
20260509134035 70 0.0 5.0 0.00 0.00 0.00 82 1012.6
20260509133035 69 68 1.0 4.0 0.00 0.00 0.00 83 1012.7
20260509132015 68 0.0 0.0 0.00 0.00 0.00 83 1012.5
20260509131015 67 0.0 0.0 0.00 0.00 0.00 83 1012.5
20260509130035 67 0.0 0.0 0.00 0.00 0.00 83 1012.6
20260509125015 66 0.0 0.0 0.00 0.00 0.00 83 1012.5
20260509124015 66 0.0 0.0 0.00 0.00 0.00 83 1012.4
20260509123534 66 0.0 0.0 0.00 0.00 0.00 83 1012.3
20260509093017 69 0.0 0.0 0.00 0.01 0.00 72 1010.6
20260509092016 69 0.0 0.0 0.00 0.01 0.00 67 1009.6
20260509091017 68 0.0 0.0 0.00 0.01 0.00 71 1009.2
20260509090017 68 0.0 0.0 0.00 0.01 0.00 73 1007.8
20260509085016 68 0.0 0.0 0.00 0.01 0.00 72 1007.9
20260509084016 68 0.0 0.0 0.00 0.01 0.00 70 1008.2
20260509083016 68 0.0 0.0 0.00 0.01 0.00 71 1008.4
20260509082017 68 0.0 0.0 0.00 0.01 0.00 72 1008.6
20260509081016 68 0.0 0.0 0.00 0.01 0.00 74 1008.9
20260509080017 67 0.0 0.0 0.00 0.01 0.00 71 1008.5
20260509075017 67 0.0 0.0 0.00 0.01 0.00 73 1009.1
20260509074016 67 0.0 0.0 0.00 0.01 0.00 75 1009.8
20260509073016 68 0.0 0.0 0.00 0.01 0.00 76 1010.4
20260509072017 68 0.0 0.0 0.00 0.01 0.00 76 1011.2
20260509071016 68 0.0 0.0 0.00 0.01 0.00 81 1011.8
20260509070037 68 0.0 0.0 0.00 0.01 0.00 87 1012.4
20260509065016 69 0.0 0.0 0.00 0.01 0.00 89 1012.9
20260509064017 69 0.0 0.0 0.00 0.01 0.00 90 1013.3
20260509063016 69 0.0 0.0 0.00 0.01 0.00 90 1013.7
20260509062016 69 0.0 0.0 0.00 0.01 0.00 90 1013.4
20260509061016 69 0.0 0.0 0.00 0.01 0.00 90 1013.3
20260509060016 69 0.0 0.0 0.00 0.01 0.00 90 1013.2
20260509055016 69 0.0 0.0 0.00 0.01 0.00 89 1013.4
20260509054016 69 0.0 0.0 0.00 0.01 0.00 89 1012.7
20260509053016 69 0.0 0.0 0.00 0.01 0.00 89 1013.0
20260509052036 69 0.0 0.0 0.00 0.01 0.00 89 1013.1
20260509051016 69 0.0 0.0 0.00 0.01 0.00 88 1013.1
20260509050016 69 0.0 0.0 0.00 0.01 0.01 88 1012.0
20260509045015 69 0.0 0.0 0.00 0.01 0.01 88 1011.9
20260509044015 69 0.0 0.0 0.00 0.01 0.01 88 1011.6
20260509043015 69 0.0 0.0 0.00 0.01 0.01 87 1011.8
20260509042015 69 0.0 0.0 0.00 0.01 0.01 87 1011.7
20260509041015 69 0.0 0.0 0.00 0.01 0.01 87 1011.7
20260509040015 69 0.0 0.0 0.00 0.01 0.01 86 1011.8
20260509035015 70 0.0 0.0 0.00 0.01 0.01 86 1011.8
20260509034035 70 0.0 0.0 0.00 0.01 0.01 85 1011.7
20260509033015 70 0.0 0.0 0.00 0.01 0.01 85 1011.2
20260509032015 70 0.0 0.0 0.00 0.01 0.01 85 1011.0
20260509031015 71 0.0 0.0 0.00 0.01 0.01 85 1010.7
20260509030015 71 0.0 0.0 0.00 0.01 0.01 84 1010.2
20260509025015 71 0.0 0.0 0.00 0.01 0.01 84 1010.2
20260509024015 71 0.0 0.0 0.00 0.01 0.01 84 1009.9
20260509023015 71 0.0 0.0 0.00 0.01 0.01 83 1009.8
20260509022015 71 0.0 0.0 0.00 0.01 0.01 82 1009.7
20260509021015 71 0.0 0.0 0.00 0.01 0.01 82 1009.5
20260509020015 71 0.0 0.0 0.00 0.01 0.01 82 1009.5
20260509015015 72 0.0 0.0 0.00 0.01 0.01 81 1009.6
20260509014017 72 0.0 0.0 0.00 0.01 0.01 81 1009.8
20260509013017 72 0.0 0.0 0.00 0.01 0.01 80 1009.8
20260509012037 72 0.0 0.0 0.00 0.01 0.01 80 1009.9
20260509011017 72 0.0 0.0 0.00 0.01 0.01 80 1009.8
20260509010017 72 158 1.0 4.0 0.00 0.01 0.01 79 1009.6
20260509005037 72 158 1.0 4.0 0.00 0.01 0.01 78 1009.3
20260509004017 73 158 1.0 5.0 0.00 0.01 0.01 78 1009.4
20260509003017 73 158 1.0 4.0 0.00 0.01 0.01 78 1009.2
20260509002015 73 180 2.0 6.0 0.00 0.01 0.01 77 1009.3
20260509001017 73 203 2.0 9.0 0.00 0.01 0.01 77 1009.4
20260509000017 73 135 2.0 6.0 0.00 0.01 0.01 76 1009.6
20260508235017 73 180 1.0 2.0 0.00 0.01 0.01 77 1009.7
20260508234016 74 180 1.0 4.0 0.00 0.01 0.01 77 1009.7
20260508233017 74 180 2.0 6.0 0.00 0.01 0.01 76 1009.7
20260508232037 74 180 2.0 6.0 0.00 0.01 0.01 76 1009.8
20260508231037 74 180 2.0 4.0 0.00 0.01 0.01 76 1009.7
20260508230037 74 180 2.0 7.0 0.00 0.01 0.01 75 1009.7
20260508225017 74 158 1.0 6.0 0.00 0.01 0.01 75 1009.8
20260508224017 74 0.0 0.0 0.00 0.01 0.01 75 1009.9
20260508223016 74 225 3.0 8.0 0.00 0.01 0.01 74 1010.0
20260508222016 74 135 4.0 8.0 0.00 0.01 0.01 72 1009.9
20260508221037 74 158 3.0 8.0 0.00 0.01 0.01 72 1009.8
20260508220037 74 135 5.0 13.0 0.00 0.01 0.01 71 1009.9
20260508215016 74 203 3.0 8.0 0.00 0.01 0.01 71 1010.0
20260508214057 75 180 4.0 10.0 0.00 0.01 0.01 69 1010.1
20260508213017 75 203 3.0 8.0 0.00 0.01 0.01 68 1010.2
20260508212016 75 158 4.0 10.0 0.00 0.01 0.01 68 1010.4
20260508211016 76 180 3.0 8.0 0.00 0.01 0.01 66 1010.5
20260508210017 76 135 4.0 11.0 0.00 0.01 0.01 66 1010.6
20260508205017 75 135 4.0 12.0 0.00 0.01 0.01 66 1010.8
20260508204017 75 158 3.0 10.0 0.00 0.01 0.01 67 1011.1
20260508203017 74 135 2.0 5.0 0.00 0.01 0.01 67 1011.3
20260508202017 74 135 3.0 10.0 0.00 0.01 0.01 68 1011.3